Other Public Products
Issued by NWS Grand Forks, ND

Home | Current Version | Previous Version | Graphics & Text | Print | Product List | Glossary On
Versions: 1 2 3 4 5 6 7 8 9 10 11 12 13 14 15 16 17 18 19 20 21 22 23 24 25 26 27 28 29 30 31 32 33 34 35 36 37 38 39 40 41 42 43 44 45 46 47 48 49 50
000
FPUS83 KFGF 212031
OPUFGF
PRAIRIE TO PINES WEATHER ROUNDUP
NATIONAL WEATHER SERVICE EASTERN NORTH DAKOTA/GRAND FORKS ND
300 PM CDT SAT APR 21 2018

 **SATELLITE DATA USED TO AUGMENT SKY COVER AT AUTOMATED STATIONS**
 *****  WEATHER ACROSS EASTERN NORTH DAKOTA  *****

CITY           SKY/WX    TMP DP  RH WIND       PRES   REMARKS
GRAND FORKS    FAIR      57  44  62 S17G23    30.27F
GRND FORKS AFB FAIR      59  43  56 S16       30.27F
GRND FORKS NWS   N/A     57  43  58 S13       30.25F
BUXTON           N/A     43  48 100 S9          N/A
DEVILS LAKE    FAIR      59  40  49 S17       30.23S
FARGO          FAIR      60  39  45 S6G20     30.29F
WAHPETON ARPT  FAIR      59  37  44 S10G17    30.31F
$$

 *****  WEATHER ACROSS CENTRAL AND WESTERN NORTH DAKOTA  *****

CITY           SKY/WX    TMP DP  RH WIND       PRES   REMARKS
JAMESTOWN      FAIR      61  41  47 S16G29    30.25S
BISMARCK       FAIR      62  35  36 S23G35    30.19F
MINOT          FAIR      64  38  38 S25G35    30.11F
MINOT AFB      FAIR      63  41  45 S23G33    30.09F
GARRISON         N/A     58  39  49 S20       30.12F
WILLISTON      FAIR      66  39  37 S18G26    30.01F
DICKINSON      FAIR      63  36  36 S25G35    30.07F
HETTINGER      FAIR      58  35  42 S25G32    30.14F
$$

 *****  OTHER OBSERVATIONS NORTHEAST NORTH DAKOTA  *****

CITY           SKY/WX    TMP DP  RH WIND       PRES   REMARKS
WALHALLA       FAIR      63  41  45 SW15G22   30.21S
LANGDON        FAIR      61  46  59 SW24      30.21F
CAVALIER         N/A     61  43  51 S15G22    30.21F
GRAFTON        FAIR      61  45  55 S20       30.26S
CANDO          FAIR      63  41  45 S20G28    30.21F
FORT TOTTEN      N/A     59  39  47 S14       29.95S
ROLLA          FAIR      57  45  62 S24G31    30.17F
RUGBY          FAIR      61  39  44 S18G35    30.16S
 ***** THE ABOVE OBSERVATIONS ARE NON NWS ARE NOT QUALITY
        CONTROLLED AND MAY MIS-REPORT RAIN FOR SNOW...
$$

 *****  OTHER OBSERVATIONS SOUTHEAST NORTH DAKOTA *****

CITY           SKY/WX    TMP DP  RH WIND       PRES   REMARKS
COOPERSTOWN    MOCLDY    57  46  67 S17       30.26F
VALLEY CITY    MOCLDY    57  45  62 S16       30.28F
OAKES            N/A     59  39  47 SW17      30.27F
GWINNER          N/A     59  41  51 S10       30.27F
SHEYENNE NWR     N/A     60  40  48 S7        29.95S
BUFFALO          N/A     58  35  41 E10         N/A
WYNDMERE       NOT AVBL
 ***** THE ABOVE OBSERVATIONS ARE NON NWS ARE NOT QUALITY
       CONTROLLED AND MAY MIS-REPORT RAIN FOR SNOW...
$$

  *****  WEATHER ACROSS NORTHERN MINNESOTA  *****

CITY           SKY/WX    TMP DP  RH WIND       PRES   REMARKS
FLAG ISLAND    FAIR      52  28  40 SE10      30.26F
WARROAD        FAIR      61  39  44 S8        30.27F
ROSEAU         FAIR      61  45  55 SW13      30.27S
HALLOCK        FAIR      63  45  51 S17       30.24F
THF RVR FALLS  FAIR      57  42  57 SW14      30.29F
HALSTAD        NOT AVBL
FOSSTON        FAIR      59  34  38 S12G17    30.30F
BAUDETTE       FAIR      59  25  27 S8        30.28F
WASKISH        CLOUDY    55  30  38 W9        30.30F
CROOKSTON      FAIR      59  43  55 SW12      30.29F
$$
  *****  WEATHER ACROSS CENTRAL AND WEST MINNESOTA  *****

CITY           SKY/WX    TMP DP  RH WIND       PRES   REMARKS
BEMIDJI        FAIR      59  33  37 SW7       30.29F
PARK RAPIDS    FAIR      56  32  40 S9        30.31F
WADENA         FAIR      57  34  41 SW3       30.32F
DETROIT LAKES  FAIR      59  30  33 S13       30.32S
MOORHEAD       FAIR      59  39  47 S8        30.31S
FERGUS FALLS   FAIR      57  37  47 S14       30.30F
ELBOW LAKE     FAIR      57  35  42 S10       30.33F
MORRIS MN      FAIR      57  37  47 S12       30.33F
STAPLES        FAIR      55  27  33 SW5       30.34S
WHEATON        FAIR      57  37  47 S9        30.34F
$$
  *****  WEATHER ELSEWHERE ACROSS MINNESOTA  *****

CITY           SKY/WX    TMP DP  RH WIND       PRES   REMARKS
DULUTH         FAIR      56  18  22 NW5       30.34F
INTRNTL FALLS  FAIR      60  26  27 SW8       30.29F
ELY            FAIR      57  18  21 CALM      30.30F
CLOQUET        FAIR      55  10  16 CALM      30.33F
BRAINERD       FAIR      56  27  32 N3        30.34F
HIBBING        FAIR      57  20  23 E5        30.32F
ALEXANDRIA     FAIR      59  31  34 S13       30.35S
SAINT CLOUD    FAIR      56  31  38 CALM      30.36S
MINNEAPOLIS    FAIR      58  21  24 CALM      30.36F
$$

  *****  WEATHER ACROSS SOUTH DAKOTA  *****

CITY           SKY/WX    TMP DP  RH WIND       PRES   REMARKS
SIOUX FALLS    CLOUDY    49  37  63 NE10      30.32F
BROOKINGS      CLOUDY    51  37  58 SE9       30.33F
WATERTOWN      CLOUDY    53  35  50 S13       30.32F
HURON          CLOUDY    46  35  65 S3        30.33S
SISSETON         N/A     59  39  47 S12G20    30.30F
ABERDEEN       CLOUDY    59  33  37 S17       30.30F
MITCHELL       CLOUDY    45  36  70 NE6       30.32F
PIERRE         CLOUDY    50  41  71 SE15      30.27F
MOBRIDGE       FAIR      58  38  47 S24G30    30.22F
RAPID CITY     FAIR      54  37  52 S17G24    30.16F
$$

  *****  SOME WEATHER IN NEARBY STATES *****

CITY           SKY/WX    TMP DP  RH WIND       PRES   REMARKS
GLASGOW MT     FAIR      71  37  28 S15       29.90F
GREAT FALLS MT FAIR      64  29  26 W38G59    29.93F
CHEYENNE WY    CLOUDY    40  34  79 CALM      30.16S
SCOTTSBLUFF NE CLOUDY    43  40  89 SE6       30.20S
OMAHA NE       CLOUDY    54  31  41 NW5       30.25F
DES MOINES IA  CLOUDY    57  27  31 E10       30.28F
DAVENPORT IA   FAIR      59  27  29 E13       30.35F
CHICAGO IL     CLOUDY    54  24  31 N5        30.41F
EAU CLAIRE WI  FAIR      59  30  33 W10G17    30.35F
LA CROSSE WI   CLOUDY    57  34  41 S8        30.38F
$$

  *****  SOME NATIONAL WEATHER *****

CITY           SKY/WX    TMP DP  RH WIND       PRES   REMARKS
LA GUARDIA NY  FAIR      61  21  21 NW16      30.26F
RALEIGH NC     FAIR      68  36  30 VRB6      30.34F
ATLANTA GA     PTSUNNY   71  42  35 E9        30.26F
NEW ORLEANS LA PTSUNNY   78  59  51 E8        30.08F
OKLAHOMA CITY  LGT RAIN  48  46  93 NE12      30.03S
ALBUQUERQUE NM FAIR      57  29  34 E7        30.12F
SALT LAKE CITY FAIR      66  28  24 W7G16     30.18F
LOS ANGELES CA FAIR      69  50  50 W15       30.03F
BOISE ID       FAIR      68  34  28 NW10      30.17F
SEATTLE WA     PTSUNNY   55  38  52 SW13      30.39S
$$

*** WEATHER ACROSS MANITOBA...SASKATCHEWAN AND ONTARIO ***
                ***ONTARIO***

CITY           SKY/WX    TMP DP  RH WIND       PRES   REMARKS
GERALDTON      MOSUNNY   57  12  17 VRB2      30.30F
THUNDER BAY    SUNNY     54  34  47 NE8       30.33F
SIOUX LOOKOUT  MOSUNNY   55  27  33 SW10      30.28F
TORONTO        MOSUNNY   57  21  24 NW12      30.38F
BIG TROUT LK   SUNNY     55  27  33 SW7       30.20F
PICKLE LAKE    MOSUNNY   57  21  24 S8        30.25F
DRYDEN         SUNNY     59  27  29 W8G17     30.28F
KENORA         MOSUNNY   55  27  33 S16       30.28F
$$
                *** MANITOBA***

CITY           SKY/WX    TMP DP  RH WIND       PRES   REMARKS
BRANDON        MOSUNNY   61  43  51 S23G30    30.12F
DAUPHIN        SUNNY     63  41  45 S16G23    30.07F
ISLAND LAKE    MOSUNNY   61  28  29 SW10      30.15F
PILOT MOUND      N/A     61  39  44 S24G30      N/A
THE PAS        CLOUDY    48  32  53 SE18      29.96F
THOMPSON       PTSUNNY   61  30  31 S10G21    30.02F
WINNIPEG       MOSUNNY   66  41  39 S13G24    30.20F
LYNN LAKE      MOSUNNY   57  32  38 SE6       29.95F
CHURCHILL      MOSUNNY   52  34  50 W12       29.99S
GILLAM         MOSUNNY   61  32  33 SW16G24   30.05F
$$
                ***SASKATCHEWAN***

CITY           SKY/WX    TMP DP  RH WIND       PRES   REMARKS
ESTEVAN        PTSUNNY   63  41  45 S16G26    30.01F
KINDERSLEY     PTSUNNY   54  41  62 SW14      29.74F
LLOYDMINSTER   LGT RAIN  45  41  87 E10       29.67F
PRINCE ALBERT  CLOUDY    41  34  75 E10       29.85F
REGINA         CLOUDY    66  43  42 SE17G23   29.92F
YORKTON        SUNNY     50  41  71 SE13      30.00F



USA.gov is the U.S. government's official web portal to all federal, state and local government web resources and services.